TimeEST,TemperatureF,Dew PointF,Humidity,Sea Level PressureIn,VisibilityMPH,Wind Direction,Wind SpeedMPH,Gust SpeedMPH,PrecipitationIn,Events,Conditions,WindDirDegrees,DateUTC
12:15 AM,32.0,29.8,92,29.56,1.0,Calm,Calm,-,N/A,Snow,Snow,0,2013-02-20 05:15:00
12:35 AM,31.6,29.7,92,29.55,0.8,WNW,3.5,-,N/A,Snow,Heavy Snow,290,2013-02-20 05:35:00
12:55 AM,31.6,29.5,92,29.55,1.0,NW,8.1,-,N/A,Snow,Snow,320,2013-02-20 05:55:00
1:15 AM,31.1,28.9,92,29.55,1.5,NW,9.2,-,N/A,Snow,Light Snow,310,2013-02-20 06:15:00
1:35 AM,29.3,25.0,84,29.55,2.5,WNW,10.4,20.7,N/A,Snow,Light Snow,290,2013-02-20 06:35:00
1:55 AM,28.6,24.6,85,29.55,2.5,WNW,8.1,-,N/A,Snow,Light Snow,290,2013-02-20 06:55:00
2:15 AM,27.5,23.9,86,29.55,2.0,WNW,5.8,-,N/A,Snow,Light Snow,290,2013-02-20 07:15:00
2:35 AM,27.5,23.9,86,29.55,5.0,Calm,Calm,-,N/A,Snow,Light Snow,0,2013-02-20 07:35:00
2:55 AM,27.5,23.9,86,29.54,5.0,Calm,Calm,-,N/A,Snow,Light Snow,0,2013-02-20 07:55:00
3:15 AM,27.1,23.7,87,29.54,2.5,Calm,Calm,-,N/A,Snow,Light Snow,0,2013-02-20 08:15:00
3:55 AM,27.1,21.6,80,29.53,4.0,SW,8.1,-,N/A,Snow,Light Snow,220,2013-02-20 08:55:00
4:15 AM,26.6,22.3,84,29.54,3.0,SW,4.6,-,N/A,Snow,Light Snow,230,2013-02-20 09:15:00
4:35 AM,26.6,21.7,82,29.54,3.0,SW,6.9,-,N/A,Snow,Light Snow,230,2013-02-20 09:35:00
4:55 AM,26.2,21.4,82,29.54,2.5,SW,6.9,-,N/A,Snow,Light Snow,230,2013-02-20 09:55:00
5:15 AM,26.1,20.7,80,29.54,3.0,SW,6.9,-,N/A,Snow,Light Snow,230,2013-02-20 10:15:00
5:35 AM,25.7,20.5,81,29.54,3.0,SW,8.1,-,N/A,Snow,Light Snow,230,2013-02-20 10:35:00
5:55 AM,25.5,20.3,81,29.54,2.5,WSW,9.2,-,N/A,Snow,Light Snow,240,2013-02-20 10:55:00
6:15 AM,25.7,20.1,79,29.54,7.0,WSW,6.9,-,N/A,Snow,Light Snow,240,2013-02-20 11:15:00
6:35 AM,25.7,19.6,78,29.54,7.0,WSW,10.4,-,N/A,Snow,Light Snow,240,2013-02-20 11:35:00
6:55 AM,25.7,19.4,77,29.54,10.0,WSW,6.9,-,N/A,,Overcast,240,2013-02-20 11:55:00
7:15 AM,25.7,19.0,76,29.54,10.0,WSW,10.4,-,N/A,,Overcast,240,2013-02-20 12:15:00
7:35 AM,26.1,18.7,74,29.54,10.0,SW,13.8,-,N/A,,Overcast,230,2013-02-20 12:35:00
8:15 AM,26.1,18.1,72,29.54,10.0,WSW,10.4,-,N/A,,Overcast,240,2013-02-20 13:15:00
8:35 AM,25.9,16.9,69,29.54,10.0,WSW,9.2,17.3,N/A,,Overcast,240,2013-02-20 13:35:00
8:55 AM,25.7,16.0,67,29.54,10.0,WSW,8.1,11.5,N/A,,Overcast,240,2013-02-20 13:55:00
9:35 AM,25.7,15.1,64,29.54,10.0,WSW,8.1,18.4,N/A,,Overcast,250,2013-02-20 14:35:00
9:55 AM,25.5,15.4,66,29.54,10.0,WSW,16.1,24.2,N/A,Snow,Light Snow,250,2013-02-20 14:55:00
10:15 AM,25.3,15.1,65,29.54,10.0,WSW,11.5,20.7,N/A,Snow,Light Snow,240,2013-02-20 15:15:00
10:35 AM,25.3,15.1,65,29.54,10.0,SW,12.7,-,N/A,Snow,Light Snow,230,2013-02-20 15:35:00
10:55 AM,25.7,14.9,64,29.54,10.0,WSW,15.0,19.6,N/A,Snow,Light Snow,240,2013-02-20 15:55:00
11:15 AM,25.7,15.6,66,29.54,10.0,WSW,11.5,-,N/A,Snow,Light Snow,240,2013-02-20 16:15:00
11:35 AM,25.5,15.6,66,29.54,7.0,WSW,15.0,19.6,N/A,Snow,Light Snow,240,2013-02-20 16:35:00
11:55 AM,25.3,16.0,68,29.54,7.0,SW,11.5,20.7,N/A,Snow,Light Snow,230,2013-02-20 16:55:00
12:15 PM,25.3,16.0,68,29.54,5.0,SW,11.5,-,N/A,Snow,Light Snow,230,2013-02-20 17:15:00
12:35 PM,25.2,16.5,70,29.54,5.0,SW,10.4,-,N/A,Snow,Light Snow,220,2013-02-20 17:35:00
12:55 PM,24.8,16.3,70,29.54,3.0,WSW,9.2,-,N/A,Snow,Light Snow,240,2013-02-20 17:55:00
1:15 PM,24.6,14.2,65,29.54,3.0,West,13.8,31.1,N/A,Snow,Light Snow,270,2013-02-20 18:15:00
1:35 PM,25.2,14.5,64,29.54,7.0,WSW,13.8,26.5,N/A,Snow,Light Snow,240,2013-02-20 18:35:00
1:55 PM,24.6,15.3,68,29.54,5.0,WSW,13.8,21.9,N/A,Snow,Light Snow,240,2013-02-20 18:55:00
2:15 PM,24.4,14.7,67,29.54,5.0,WSW,15.0,24.2,N/A,Snow,Light Snow,250,2013-02-20 19:15:00
2:35 PM,24.4,15.1,68,29.54,4.0,WSW,19.6,25.3,N/A,Snow,Light Snow,240,2013-02-20 19:35:00
2:55 PM,23.9,14.7,68,29.55,3.0,SW,15.0,28.8,N/A,Snow,Light Snow,230,2013-02-20 19:55:00
3:15 PM,23.9,14.7,68,29.55,4.0,WSW,12.7,21.9,N/A,Snow,Light Snow,250,2013-02-20 20:15:00
3:35 PM,23.9,14.2,66,29.56,7.0,SW,11.5,18.4,N/A,Snow,Light Snow,230,2013-02-20 20:35:00
3:55 PM,23.5,14.2,67,29.56,4.0,SW,12.7,18.4,N/A,Snow,Light Snow,230,2013-02-20 20:55:00
4:15 PM,23.2,14.7,70,29.57,4.0,SW,12.7,20.7,N/A,Snow,Light Snow,230,2013-02-20 21:15:00
4:35 PM,23.0,14.9,71,29.57,2.5,WSW,10.4,21.9,N/A,Snow,Light Snow,240,2013-02-20 21:35:00
4:55 PM,22.8,15.6,74,29.58,2.5,SW,10.4,-,N/A,Snow,Light Snow,230,2013-02-20 21:55:00
5:15 PM,22.6,16.3,77,29.59,2.0,SW,10.4,17.3,N/A,Snow,Light Snow,220,2013-02-20 22:15:00
5:35 PM,22.1,16.9,80,29.59,2.0,SW,11.5,18.4,N/A,Snow,Light Snow,230,2013-02-20 22:35:00
5:55 PM,22.1,16.7,80,29.60,2.0,WSW,8.1,18.4,N/A,Snow,Light Snow,240,2013-02-20 22:55:00
6:15 PM,22.1,16.3,79,29.60,3.0,WSW,8.1,19.6,N/A,Snow,Light Snow,250,2013-02-20 23:15:00
6:35 PM,22.1,16.5,79,29.61,2.5,WSW,9.2,-,N/A,Snow,Light Snow,250,2013-02-20 23:35:00
6:55 PM,21.9,17.1,82,29.61,1.5,WSW,11.5,16.1,N/A,Snow,Light Snow,240,2013-02-20 23:55:00
7:15 PM,22.1,16.7,80,29.61,2.5,WSW,13.8,21.9,N/A,Snow,Light Snow,240,2013-02-21 00:15:00
7:35 PM,21.9,16.3,79,29.60,2.5,WSW,13.8,19.6,N/A,Snow,Light Snow,240,2013-02-21 00:35:00
8:15 PM,21.2,16.3,82,29.61,1.8,WSW,11.5,19.6,N/A,Snow,Light Snow,240,2013-02-21 01:15:00
8:35 PM,21.2,15.8,80,29.62,2.0,SW,9.2,19.6,N/A,Snow,Light Snow,230,2013-02-21 01:35:00
8:55 PM,21.2,16.5,82,29.62,1.5,WSW,5.8,16.1,N/A,Snow,Light Snow,240,2013-02-21 01:55:00
9:15 PM,21.2,16.7,83,29.62,1.2,WSW,8.1,-,N/A,Snow,Light Snow,250,2013-02-21 02:15:00
9:35 PM,21.2,16.7,83,29.63,1.2,West,9.2,21.9,N/A,Snow,Light Snow,260,2013-02-21 02:35:00
9:55 PM,21.2,16.7,83,29.63,1.2,West,6.9,16.1,N/A,Snow,Light Snow,270,2013-02-21 02:55:00
10:15 PM,20.8,16.0,81,29.64,1.5,SW,5.8,-,N/A,Snow,Light Snow,230,2013-02-21 03:15:00
10:35 PM,19.9,15.1,81,29.65,1.8,SW,4.6,-,N/A,Snow,Light Snow,230,2013-02-21 03:35:00
10:55 PM,19.6,14.2,80,29.66,2.0,South,5.8,-,N/A,Snow,Light Snow,190,2013-02-21 03:55:00
11:35 PM,18.3,12.0,76,29.67,2.0,SW,8.1,-,N/A,Snow,Light Snow,220,2013-02-21 04:35:00
11:55 PM,17.6,11.5,77,29.68,2.5,West,15.0,-,N/A,Snow,Light Snow,270,2013-02-21 04:55:00